Flag for U.S.A. Weather past 2 weeks in Bridgeport, Connecticut, U.S.A.

Now
61 °F

Sunny.


Feels Like: 61 °F
Forecast: 62 / 81 °F
Wind: 6 mph from Southwest

Location: Sikorsky Memorial Airport

Current Time: May 26, 2015 at 7:48:09 AM

Latest Report: May 26, 2015 at 6:52 AM


Visibility: 10 mi

Pressure: 30.22 "Hg

Humidity: 83%

Dew point: 56 °F

Location of BridgeportLocation

Historic Weather in Bridgeport — Graph

°F

Bridgeport temperature yesterday

Maximum temperature yesterday: 77 °F (at 3:52 PM)
Minimum temperature yesterday: 56 °F (at 5:52 AM)
Average temperature yesterday: 65 °F

Past Weeks' High & Low Weather Summary

 TemperatureHumidityPressure
High81 °F (May 12, 1:52 PM)100% (May 11, 6:52 AM)30.40 "Hg (May 11, 6:52 AM)
Low47 °F (May 23, 5:52 AM)23% (May 22, 7:52 PM)29.72 "Hg (May 12, 6:52 PM)
Average61 °F65%30.10 "Hg
* Reported May 11 6:52 AM — May 26 6:52 AM, Bridgeport, Weather by CustomWeather, © 2015

Note: Actual official high and low records may vary slightly from our data, if they occured in-between our weather recording intervals... More about our weather records

Advertising

Bridgeport weather history for previous 24 hours

 ConditionsComfort  
Time TempWeatherWind HumidityBarometerVisibility
6:52 AM
Tue, May 26
61 °FSunny.6 mph83%30.22 "Hg10 mi
5:52 AM60 °FClear.5 mph83%30.20 "Hg10 mi
4:52 AM62 °FClear.9 mph78%30.19 "Hg10 mi
3:52 AM62 °FClear.8 mph73%30.18 "Hg10 mi
2:52 AM62 °FClear.10 mph73%30.18 "Hg10 mi
1:52 AM63 °FClear.10 mph73%30.18 "Hg10 mi
12:52 AM64 °FClear.12 mph73%30.19 "Hg10 mi
11:52 PM
Mon, May 25
63 °FClear.13 mph78%30.19 "Hg10 mi
10:52 PM63 °FClear.5 mph75%30.19 "Hg10 mi
9:52 PM67 °FClear.20 mph68%30.17 "Hg10 mi
8:52 PM65 °FSunny.16 mph70%30.16 "Hg10 mi
7:52 PM67 °FSunny.14 mph68%30.16 "Hg10 mi
6:52 PM70 °FSunny.18 mph64%30.16 "Hg10 mi
5:52 PM73 °FSunny.16 mph57%30.16 "Hg10 mi
4:52 PM77 °FSunny.15 mph52%30.17 "Hg10 mi
3:52 PM77 °FSunny.16 mph54%30.19 "Hg10 mi
2:52 PM69 °FSunny.8 mph68%30.20 "Hg10 mi
1:52 PM70 °FSunny.9 mph66%30.22 "Hg10 mi
12:52 PM69 °FScattered clouds.8 mph66%30.24 "Hg10 mi
11:52 AM74 °FSunny.7 mph57%30.26 "Hg10 mi
10:52 AM70 °FPassing clouds.7 mph64%30.27 "Hg10 mi
9:52 AM68 °FSunny.8 mph65%30.27 "Hg10 mi
8:52 AM62 °FSunny.6 mph78%30.27 "Hg10 mi
7:52 AM62 °FSunny.7 mph78%30.28 "Hg10 mi
Weather by CustomWeather, © 2015

See weather overviewHow to use our weather pages